Location: Casco Millpond
(44.5581°N, 87.6111°W)
Time: 22:07:30
(UTC+00:00)

Cosmos 304 Rocket - Pass Details

Date: 16 January 2026
Orbit: 669 x 676 km, 74.0° (Epoch: 13 February)

Event Time Altitude Azimuth Distance (km) Brightness Sun altitude
Rises 12:28:31 0° 189° (S) 3,013 7.2 -9.7°
Reaches altitude 10° 12:30:49 10° 186° (S) 2,104 6.5 -9.3°
Maximum altitude 12:35:28 60° 107° (ESE) 773 4.4 -8.5°
Drops below altitude 10° 12:40:10 10° 28° (NNE) 2,120 6.4 -7.7°
Sets 12:42:29 0° 25° (NNE) 3,039 7.1 -7.3°
